Miscellaneous Local Product
Issued by NWS Hastings, NE

Home | Current Version | Previous Version | Graphics & Text | Print | Product List | Glossary On
Versions: 1 2 3 4 5 6 7 8 9 10 11 12 13 14 15 16 17 18 19 20 21 22 23 24 25 26 27 28 29 30 31 32 33 34 35 36 37 38 39 40 41 42 43 44 45 46 47 48 49 50
000
AXUS43 KGID 271002
MISGRI

GID CWA HOURLY WEATHER ROUNDUP
NATIONAL WEATHER SERVICE HASTINGS NE
500 AM CDT THU APR 27 2017

NOTE: "FAIR" INDICATES FEW OR NO CLOUDS BELOW 12,000 FEET WITH NO
SIGNIFICANT WEATHER AND/OR OBSTRUCTIONS TO VISIBILITY.

...SOUTH CENTRAL NEBRASKA...

CITY           SKY/WX    TMP DP  RH WIND       PRES   REMARKS
GRAND ISLAND   CLEAR     28  26  92 W8        29.69S WCI  20
HASTINGS       CLEAR     29  25  85 W6        29.70F WCI  23
KEARNEY        CLEAR     30  25  80 NW5       29.69F WCI  25
ORD            CLEAR     29  25  85 W7        29.67S WCI  22
YORK           PTCLDY    28  27  93 NW9       29.68F WCI  20
AURORA         CLEAR     28  26  91 NW7       29.68S WCI  21
LEXINGTON      CLEAR     28  26  90 N5        29.68F WCI  23
HOLDREGE       CLEAR     29  26  90 CALM      29.68F
HEBRON         CLEAR     29  26  88 W6        29.70S WCI  23

...NEBRASKA PANHANDLE...

CITY           SKY/WX    TMP DP  RH WIND       PRES   REMARKS
CHADRON        CLOUDY    30  27  88 NE6       29.63F WCI  24
ALLIANCE       PTCLDY    29  27  92 E7        29.60F WCI  22
SCOTTSBLUFF    CLOUDY    38  35  89 E8        29.59F WCI  32
SIDNEY         MOCLDY    38  36  92 SW8       29.60F WCI  32

...WESTERN AND NORTH CENTRAL NEBRASKA...

CITY           SKY/WX    TMP DP  RH WIND       PRES   REMARKS
VALENTINE      CLEAR     23  18  81 W5        29.68F WCI  17
AINSWORTH      CLEAR     28  27  95 W6        29.68S WCI  21
ONEILL         CLEAR     29  26  88 W9        29.68F WCI  21
BROKEN BOW     CLEAR     29  25  85 N3        29.68S
IMPERIAL       CLEAR     34  29  82 SE8       29.64F WCI  27
NORTH PLATTE   CLEAR     32  30  92 E3        29.67F
MCCOOK         PTCLDY    31  28  89 NE3       29.67F

...EASTERN NEBRASKA...

CITY           SKY/WX    TMP DP  RH WIND       PRES   REMARKS
NORFOLK        CLEAR     31  27  85 NW9       29.65F WCI  23
SO SIOUX CITY  CLOUDY    33  29  85 NW13      29.65R WCI  24
TEKAMAH        PTCLDY    34  26  72 NW12      29.67R WCI  25
COLUMBUS       CLEAR     30  25  80 W7        29.67F WCI  23
ALBION         CLEAR     28  24  86 W5        29.67S WCI  23
OMAHA EPPLEY   CLOUDY    38  27  64 NW16      29.66R WCI  29
OFFUTT AFB     CLOUDY    39  30  70 NW9       29.65R WCI  33
MILLARD        CLOUDY    41  33  73 NW7       29.66S
LINCOLN        CLEAR     35  29  78 NW6       29.68S WCI  30
NEBRASKA CITY  CLOUDY    40  30  66 NW7       29.66S
BEATRICE       CLEAR     33  30  86 W9        29.67F WCI  26
FALLS CITY     CLOUDY    39  32  76 W6        29.67R WCI  35

...NORTHERN KANSAS...

CITY           SKY/WX    TMP DP  RH WIND       PRES   REMARKS
GOODLAND       CLOUDY    34  29  82 S8        29.63F WCI  27
HILL CITY      CLEAR     29  27  92 CALM      29.70F
NORTON         CLOUDY    30  25  80 CALM      29.68F
PHILLIPSBURG   CLEAR     28  28 100 NW3       29.71S
SMITH CENTER   CLEAR     25  21  86 CALM      29.72S
HAYS           CLEAR     31  28  89 E6        29.70F WCI  25
RUSSELL        CLEAR     31  29  92 E3        29.70S
CONCORDIA      CLEAR     32  29  88 W6        29.70F WCI  26
SALINA         CLEAR     35  30  82 CALM      29.72F
TOPEKA         CLEAR     40  33  76 W5        29.71R



USA.gov is the U.S. government's official web portal to all federal, state and local government web resources and services.